User: anonymous   Login
Location: Newark
(15.4608°S, 41.1635°W)
Time: 03:31:58
(UTC+00:00)
Language:

NOAA 19 - Orbit

View from above orbital plane
View from above orbital plane
View from above satellite
View from above satellite

Ground track
Ground track

The orbit data is extracted from the following two-line orbital elements,

1 33591U 09005A   20058.86857212 +.00000015 +00000-0 +33454-4 0  9998
2 33591 099.1958 061.3377 0014452 029.6065 330.5921 14.12397026569520
Epoch (UTC): 27 February 2020 20:50:44
Eccentricity: 0.0014452
inclination: 99.1958°
perigee height: 841 km
apogee height: 861 km
right ascension of ascending node: 61.3377°
argument of perigee: 29.6065°
revolutions per day: 14.12397026
mean anomaly at epoch: 330.5921°
orbit number at epoch: 56952

The dashed part of the orbit path shows where the satellite is in the earth's shadow,  

DLR